Regional Weather Roundup
Issued by NWS

Home | Current Version | Previous Version | Text Only | Print | Product List | Glossary Off
Versions: 1 2 3 4 5 6 7 8 9 10 11 12 13 14 15 16 17 18 19 20 21 22 23 24 25 26 27 28 29 30 31 32 33 34 35 36 37 38 39 40 41 42 43 44 45 46 47 48 49 50

483
ASUS43 KIND 232359
RWRIN

WEATHER ROUNDUP FOR INDIANA
NATIONAL WEATHER SERVICE INDIANAPOLIS IN
800 PM EDT MON APR 23 2018

NOTE: "FAIR" INDICATES FEW OR NO CLOUDS BELOW 12,000 FEET WITH NO
SIGNIFICANT WEATHER AND/OR OBSTRUCTIONS TO VISIBILITY.

* - STATION DOES NOT REPORT WEATHER SUCH AS PRECIPITATION OR FOG.

+ - STATION NOT QUALITY CONTROLLED BY THE NATIONAL WEATHER SERVICE.
    USE DATA WITH CAUTION...ESPECIALLY DEWPOINT AND RELATIVE
    HUMIDITY OBSERVATIONS.

INZ001>003-010>013-019-020-240100-
NORTHWEST INDIANA

CITY           SKY/WX    TMP DP  RH WIND       PRES   REMARKS
GARY /AIRPORT/ CLOUDY    46  34  61 CALM      30.12S
KNOX *+        CLOUDY    55  54  94 SE6       30.09S
MONTICELLO +   CLOUDY    56  55  94 E7        30.07S
6HR MIN TEMP:  56; 6HR MAX TEMP:  66;


$$

LMZ046-743>745-240100-
SOUTHERN LAKE MICHIGAN

STATION/POSITION TIME  TEMP    WIND        PRES    WAVE
                       AIR SEA DIR/SP/G            HT
                 (UTC) (F)     (DEG/KT/KT) (MB)    (FT)
BURNS HARBOR     2340   42      CALM  /  3 1020.0S
MICHIGAN CITY    2330   45     300/  2/  2   N/A

$$

INZ004-005-014>016-021>024-240100-
NORTH CENTRAL INDIANA

CITY           SKY/WX    TMP DP  RH WIND       PRES   REMARKS
ELKHART        LGT RAIN  59  50  72 SE14G21   30.12R
GOSHEN         CLOUDY    59  51  75 SE8       30.11S
6HR MIN TEMP:  59; 6HR MAX TEMP:  72; 6HR PCP: TRACE;

ROCHESTER +    MOCLDY    57  52  82 SE10      30.10S
SOUTH BEND     CLOUDY    58  51  78 SE13      30.13R
6HR MIN TEMP:  58; 6HR MAX TEMP:  72; 6HR PCP: TRACE;

WARSAW +       CLOUDY    57  52  82 SE8       30.10F

$$

INZ006>009-017-018-025>027-240100-
NORTHEAST INDIANA

CITY           SKY/WX    TMP DP  RH WIND       PRES   REMARKS
ANGOLA *+      CLOUDY    57  52  82 SE9G16    30.13S
FORT WAYNE     CLOUDY    56  50  80 SE14G22   30.12F
6HR MIN TEMP:  56; 6HR MAX TEMP:  71; 6HR PCP:  0.01;

KENDALLVILLE + CLOUDY    56  48  72 SE10      30.13S

$$

INZ028-029-035-036-043>045-051>053-240100-
WEST CENTRAL INDIANA

CITY           SKY/WX    TMP DP  RH WIND       PRES   REMARKS
GREENCASTLE +  CLOUDY    54  52  94 E9        30.02S FOG
LAFAYETTE      CLOUDY    56  54  93 E9        30.04F
6HR MIN TEMP:  55; 6HR MAX TEMP:  64; 6HR PCP:  0.04;

TERRE HAUTE    LGT RAIN  56  55  97 E9        30.00S
6HR MIN TEMP:  55; 6HR MAX TEMP:  59; 6HR PCP:  0.08;


$$

INZ030>032-037>040-046>048-054>057-064-065-240100-
CENTRAL INDIANA

CITY           SKY/WX    TMP DP  RH WIND       PRES   REMARKS
COLUMBUS       CLOUDY    55 N/A N/A E18G25    30.03R
GREENWOOD *+   CLOUDY    55  52  89 E12G18    30.04R
INDIANAPOLIS   CLOUDY    56  53  90 E13       30.03S
6HR MIN TEMP:  53; 6HR MAX TEMP:  57; 6HR PCP:  0.22;

-EAGLE CREEK   CLOUDY    56  52  86 E13       30.03S
6HR MIN TEMP:  54; 6HR MAX TEMP:  57; 6HR PCP:  0.18;

KOKOMO +       CLOUDY    55  52  89 E17G24    30.07F
6HR MIN TEMP:  55; 6HR MAX TEMP:  64; 6HR PCP:  0.02;

MT COMFORT *+  CLOUDY    54  54 100 SE15G21   30.05S
SHELBYVILLE    CLOUDY    57  50  77 E15       30.03S
6HR MIN TEMP:  56; 6HR MAX TEMP:  59; 6HR PCP:  0.18;

ZIONSVILLE +   RAIN      54  53  97 E13       30.06S
6HR MIN TEMP:  52; 6HR MAX TEMP:  55; 6HR PCP:  0.15;


$$

INZ033-034-041-042-049-050-058-059-240100-
EAST CENTRAL INDIANA

CITY           SKY/WX    TMP DP  RH WIND       PRES   REMARKS
MUNCIE         CLOUDY    55  51  86 E15G23    30.08S
6HR MIN TEMP:  55; 6HR MAX TEMP:  59; 6HR PCP:  0.13;

RICHMOND +     LGT RAIN  50  50 100 E16G22    30.10S

$$

INZ060-061-067>069-081>083-085>088-240100-
SOUTHWEST INDIANA

CITY           SKY/WX    TMP DP  RH WIND       PRES   REMARKS
EVANSVILLE     MOCLDY    59  57  93 SE3       29.93S
6HR MIN TEMP:  59; 6HR MAX TEMP:  67; 6HR PCP:  0.03;

HUNTINGBURG +  LGT RAIN  59  56  89 E9        29.95R
6HR MIN TEMP:  59; 6HR MAX TEMP:  66; 6HR PCP:  0.01;


$$

INZ062-063-066-070>080-084-089>092-240100-
SOUTH CENTRAL AND SOUTHEAST INDIANA

CITY           SKY/WX    TMP DP  RH WIND       PRES   REMARKS
BLOOMINGTON    CLOUDY    57  54  89 E10       29.99S
6HR MIN TEMP:  54; 6HR MAX TEMP:  57; 6HR PCP:  0.10;

SEYMOUR +      CLOUDY    59  50  72 E14       30.01R

$$





USA.gov is the U.S. government's official web portal to all federal, state and local government web resources and services.